"startDT [UTC]","vpos","CH4 [ppm]","stdev(CH4) [ppm]","CO2 [ppm]","stdev(CO2) [ppm]","H2O_reported [%]","stdev(H2O_reported)","CavityPressure [torr]","CavityTemp [C]","OutletValve","CH4_dry [ppm]","CO2_dry [ppm]","DasTemp [C]","EtalonTemp [C]","WarmBoxTemp [C]","MPVPosition","T_ECpre [C]","T_EC1 [C]","T_EC2 [C]","p_inlet [hPa]","p_in [hPa]","p_out [hPa]","T_inlet [C]","RH_inlet [%]","dwpt_inlet [C]","T_vent [C]","RH_vent [%]","dwpt_vent [C]","flow_vent [l min-1]","flow_inlet [l min-1]","dwpt_sample [C]","T_room [C]"
2013-11-04 00:00:00,0.0,1.92438,0.00020,398.064,0.000,0.0615,0.0010,139.999,45.000,31234.82898,1.92547,398.358,26.333,45.061,45.000,0.00,0.11,-272.58,-272.64,-9,558,7,13.3,3.2,-30.4,13.5,3.3,-29.8,5.73,2.57,-16.2,19.9
2013-11-04 00:01:00,0.0,1.92434,0.00112,398.064,0.000,0.0620,0.0015,140.004,45.000,31236.69867,1.92509,398.359,26.356,45.061,45.000,0.00,0.11,-272.58,-272.64,-9,558,7,13.4,3.2,-30.3,13.5,3.3,-29.8,5.73,2.64,-16.3,19.9
2013-11-04 00:02:00,0.0,1.92533,0.00043,398.064,0.000,0.0617,0.0012,139.999,45.000,31236.59941,1.92676,398.361,26.342,45.061,45.000,0.00,0.11,-272.58,-272.64,-9,557,7,13.3,3.2,-30.2,13.5,3.4,-29.7,5.73,2.65,-16.4,19.9
2013-11-04 00:03:00,0.0,1.92382,0.00083,397.966,0.087,0.0635,0.0016,139.991,45.000,31235.67244,1.92542,398.287,26.339,45.061,45.000,0.00,0.11,-272.58,-272.64,-10,558,7,13.4,3.2,-30.2,13.5,3.4,-29.7,5.73,2.58,-16.5,19.9
2013-11-04 00:04:00,0.0,1.92362,0.00071,397.863,0.027,0.0625,0.0021,139.997,45.000,31234.26975,1.92457,398.167,26.347,45.061,45.000,0.00,0.11,-272.58,-272.64,-9,558,7,13.3,3.3,-30.1,13.5,3.4,-29.6,5.73,2.61,-16.5,19.9
2013-11-04 00:05:00,0.0,1.92455,0.00041,397.834,0.000,0.0619,0.0015,139.999,45.000,31235.80537,1.92582,398.132,26.321,45.061,45.000,0.00,0.11,-272.58,-272.64,-9,557,7,13.4,3.3,-30.1,13.5,3.4,-29.5,5.73,2.67,-16.6,19.9
2013-11-04 00:06:00,0.0,1.92441,0.00074,397.834,0.000,0.0643,0.0021,139.996,45.000,31234.82382,1.92574,398.139,26.336,45.061,45.000,0.00,0.11,-272.58,-272.64,-9,557,7,13.4,3.3,-30.0,13.5,3.4,-29.5,5.73,2.59,-16.6,19.9
2013-11-04 00:07:00,0.0,1.92500,0.00055,397.834,0.000,0.0638,0.0025,140.000,45.000,31235.72981,1.92590,398.141,26.319,45.061,45.000,0.00,0.11,-272.58,-272.64,-9,558,7,13.4,3.3,-30.0,13.5,3.4,-29.5,5.73,2.60,-16.7,19.9
2013-11-04 00:08:00,0.0,1.92436,0.00023,397.834,0.000,0.0639,0.0009,139.993,45.000,31235.04556,1.92566,398.140,26.316,45.061,45.000,0.00,0.11,-272.58,-272.64,-9,558,7,13.3,3.3,-30.0,13.5,3.4,-29.5,5.73,2.65,-16.8,19.9
2013-11-04 00:09:00,0.0,1.92456,0.00051,397.831,0.004,0.0644,0.0019,140.002,45.000,31238.34073,1.92574,398.141,26.315,45.061,45.000,0.00,0.11,-272.58,-272.63,-9,557,7,13.3,3.3,-29.9,13.5,3.5,-29.4,5.73,2.63,-16.8,19.9
2013-11-04 00:10:00,0.0,1.92501,0.00069,397.842,0.013,0.0632,0.0007,139.998,45.000,31233.95536,1.92604,398.141,26.328,45.061,45.000,0.00,0.11,-272.59,-272.64,-9,557,7,13.3,3.3,-29.9,13.5,3.5,-29.4,5.73,2.56,-16.8,19.9
2013-11-04 00:11:00,0.0,1.92505,0.00055,397.851,0.000,0.0653,0.0024,140.004,45.000,31237.46631,1.92631,398.165,26.348,45.061,45.000,0.00,0.11,-272.58,-272.64,-10,557,7,13.3,3.3,-29.9,13.5,3.5,-29.4,5.73,2.65,-16.9,19.9
2013-11-04 00:12:00,0.0,1.92447,0.00058,397.851,0.000,0.0650,0.0017,139.999,45.000,31237.14825,1.92603,398.160,26.364,45.061,45.000,0.00,0.11,-272.58,-272.64,-9,558,7,13.3,3.3,-29.9,13.5,3.5,-29.3,5.73,2.64,-16.9,19.9
2013-11-04 00:13:00,0.0,1.92425,0.00050,397.855,0.005,0.0647,0.0010,139.999,45.000,31236.85406,1.92549,398.163,26.333,45.060,44.999,0.00,0.11,-272.58,-272.64,-9,558,7,13.3,3.3,-29.8,13.5,3.5,-29.3,5.73,2.58,-16.9,19.9
2013-11-04 00:14:00,0.0,1.92493,0.00079,397.863,0.000,0.0659,0.0020,140.004,45.000,31238.26055,1.92624,398.179,26.330,45.060,45.000,0.00,0.11,-272.58,-272.64,-9,557,7,13.3,3.3,-29.8,13.5,3.5,-29.3,5.73,2.61,-16.9,19.9
2013-11-04 00:15:00,0.0,1.92410,0.00023,397.840,0.020,0.0648,0.0011,140.003,45.000,31238.49796,1.92533,398.154,26.353,45.060,45.000,0.00,0.11,-272.58,-272.63,-10,557,7,13.3,3.3,-29.8,13.5,3.5,-29.3,5.73,2.67,-17.0,19.9
2013-11-04 00:16:00,0.0,1.92335,0.00075,397.822,0.000,0.0649,0.0011,140.002,45.000,31234.55947,1.92477,398.134,26.344,45.060,45.000,0.00,0.11,-272.58,-272.64,-10,558,7,13.3,3.4,-29.8,13.5,3.5,-29.3,5.73,2.60,-17.0,19.8
2013-11-04 00:17:00,0.0,1.92398,0.00102,397.790,0.048,0.0660,0.0017,140.000,45.000,31235.57100,1.92524,398.114,26.353,45.060,45.000,0.00,0.11,-272.58,-272.64,-9,557,7,13.4,3.4,-29.8,13.5,3.5,-29.2,5.73,2.59,-17.0,19.9
2013-11-04 00:18:00,0.0,1.92276,0.00035,397.716,0.000,0.0656,0.0023,139.995,45.000,31236.77161,1.92403,398.031,26.356,45.060,45.000,0.00,0.11,-272.58,-272.64,-9,557,7,13.4,3.4,-29.7,13.5,3.5,-29.2,5.73,2.65,-17.0,19.9
2013-11-04 00:19:00,0.0,1.92355,0.00113,397.716,0.000,0.0666,0.0011,140.001,45.000,31236.89384,1.92421,398.034,26.335,45.061,45.000,0.00,0.11,-272.58,-272.64,-9,557,7,13.3,3.4,-29.7,13.5,3.5,-29.1,5.73,2.64,-17.0,19.9
2013-11-04 00:20:00,0.0,1.92336,0.00089,397.716,0.000,0.0660,0.0003,139.998,45.000,31235.32384,1.92529,398.031,26.334,45.061,45.000,0.00,0.11,-272.58,-272.64,-9,558,7,13.3,3.4,-29.6,13.5,3.6,-29.1,5.73,2.57,-17.0,19.9
2013-11-04 00:21:00,0.0,1.92262,0.00037,397.716,0.000,0.0651,0.0013,140.005,45.000,31239.54075,1.92376,398.029,26.341,45.061,45.000,0.00,0.11,-272.58,-272.64,-9,558,7,13.3,3.4,-29.6,13.5,3.6,-29.0,5.73,2.63,-17.1,19.9
2013-11-04 00:22:00,0.0,1.92264,0.00027,397.716,0.000,0.0672,0.0017,140.006,45.000,31238.28002,1.92397,398.034,26.352,45.061,45.000,0.00,0.11,-272.58,-272.64,-9,557,7,13.3,3.5,-29.5,13.5,3.6,-28.9,5.73,2.66,-17.1,19.9
2013-11-04 00:23:00,0.0,1.92315,0.00094,397.716,0.000,0.0682,0.0012,139.995,45.000,31236.54148,1.92438,398.042,26.339,45.061,45.000,0.00,0.11,-272.58,-272.64,-9,557,7,13.3,3.5,-29.4,13.5,3.6,-28.8,5.73,2.59,-17.1,19.8
2013-11-04 00:24:00,0.0,1.92361,0.00057,397.716,0.000,0.0682,0.0007,140.000,45.000,31236.96018,1.92465,398.042,26.329,45.061,45.000,0.00,0.11,-272.58,-272.64,-10,557,7,13.3,3.5,-29.3,13.5,3.7,-28.8,5.73,2.59,-17.1,19.9
2013-11-04 00:25:00,0.0,1.92310,0.00075,397.716,0.000,0.0669,0.0009,140.004,45.000,31236.89200,1.92461,398.037,26.317,45.060,45.000,0.00,0.11,-272.58,-272.64,-10,558,7,13.3,3.6,-29.2,13.5,3.7,-28.7,5.73,2.68,-17.1,19.9
2013-11-04 00:26:00,0.0,1.92267,0.00102,397.716,0.000,0.0707,0.0017,140.007,45.000,31239.15879,1.92371,398.052,26.317,45.061,45.000,0.00,0.11,-272.58,-272.64,-9,557,7,13.3,3.6,-29.1,13.5,3.7,-28.6,5.73,2.61,-17.1,19.9
2013-11-04 00:27:00,0.0,1.92374,0.00029,397.716,0.000,0.0710,0.0009,140.004,45.000,31236.68996,1.92526,398.054,26.332,45.061,45.000,0.00,0.11,-272.58,-272.64,-9,557,7,13.3,3.6,-29.1,13.5,3.8,-28.5,5.73,2.58,-17.1,19.8
2013-11-04 00:28:00,0.0,1.92337,0.00022,397.716,0.000,0.0714,0.0013,139.999,45.000,31233.97069,1.92475,398.059,26.315,45.061,45.000,0.00,0.11,-272.58,-272.64,-9,557,7,13.3,3.6,-29.0,13.5,3.8,-28.4,5.73,2.65,-17.2,19.8
2013-11-04 00:29:00,0.0,1.92330,0.00038,397.716,0.000,0.0727,0.0029,139.997,45.000,31234.20172,1.92468,398.062,26.325,45.061,45.000,0.00,0.11,-272.58,-272.64,-9,557,7,13.3,3.7,-28.8,13.5,3.8,-28.3,5.73,2.65,-17.2,19.9
2013-11-04 00:30:00,0.0,1.92297,0.00015,397.712,0.007,0.0723,0.0013,140.013,45.000,31240.39034,1.92438,398.058,26.321,45.061,45.000,0.00,0.11,-272.58,-272.64,-9,557,7,13.3,3.8,-28.6,13.5,3.9,-28.1,5.73,2.57,-17.2,19.9
2013-11-04 00:31:00,0.0,1.92296,0.00025,397.700,0.000,0.0744,0.0006,140.005,45.000,31239.16821,1.92444,398.056,26.314,45.061,45.000,0.00,0.11,-272.58,-272.64,-9,557,7,13.3,3.8,-28.5,13.5,3.9,-28.0,5.73,2.62,-17.2,19.9
2013-11-04 00:32:00,0.0,1.92273,0.00037,397.700,0.000,0.0747,0.0016,139.992,45.000,31234.05299,1.92427,398.058,26.320,45.061,45.000,0.00,0.11,-272.58,-272.64,-9,557,7,13.3,3.8,-28.4,13.5,4.0,-27.9,5.73,2.67,-17.2,19.8
2013-11-04 00:33:00,0.0,1.92283,0.00054,397.700,0.000,0.0757,0.0024,140.005,45.000,31237.07010,1.92402,398.061,26.316,45.061,45.000,0.00,0.11,-272.58,-272.64,-10,557,7,13.3,3.9,-28.4,13.5,4.0,-27.8,5.73,2.59,-17.2,19.8
2013-11-04 00:34:00,0.0,1.92285,0.00065,397.661,0.000,0.0758,0.0019,140.002,45.000,31237.53800,1.92450,398.027,26.313,45.061,45.000,0.00,0.11,-272.58,-272.64,-9,557,7,13.3,3.9,-28.3,13.5,4.0,-27.8,5.73,2.59,-17.2,19.8
2013-11-04 00:35:00,0.0,1.92287,0.00036,397.661,0.000,0.0772,0.0012,139.992,45.000,31235.11187,1.92416,398.029,26.318,45.061,45.000,0.00,0.11,-272.58,-272.63,-9,557,7,13.3,3.9,-28.2,13.5,4.0,-27.7,5.73,2.66,-17.2,19.8
2013-11-04 00:36:00,0.0,1.92292,0.00047,397.684,0.012,0.0757,0.0008,140.004,45.000,31237.69059,1.92433,398.045,26.319,45.060,45.000,0.00,0.11,-272.58,-272.63,-10,557,7,13.3,3.9,-28.2,13.5,4.1,-27.6,5.73,2.64,-17.2,19.8
2013-11-04 00:37:00,0.0,1.92290,0.00025,397.744,0.028,0.0774,0.0020,139.995,45.000,31232.13779,1.92449,398.105,26.323,45.060,45.000,0.00,0.11,-272.58,-272.64,-10,557,7,13.3,3.9,-28.1,13.4,4.1,-27.6,5.73,2.56,-17.2,19.8
2013-11-04 00:38:00,0.0,1.92251,0.00017,397.759,0.000,0.0792,0.0009,139.999,45.000,31234.75785,1.92408,398.137,26.320,45.060,45.000,0.00,0.11,-272.58,-272.64,-9,557,7,13.3,3.9,-28.1,13.4,4.1,-27.6,5.73,2.64,-17.2,19.8
2013-11-04 00:39:00,0.0,1.92171,0.00040,397.759,0.000,0.0801,0.0012,140.000,45.000,31235.49221,1.92348,398.141,26.322,45.060,45.000,0.00,0.11,-272.58,-272.64,-9,557,7,13.3,4.0,-28.1,13.5,4.1,-27.5,5.73,2.66,-17.2,19.8
2013-11-04 00:40:00,0.0,1.92152,0.00039,397.759,0.000,0.0797,0.0014,140.006,45.000,31237.72848,1.92287,398.140,26.313,45.061,45.000,0.00,0.11,-272.58,-272.64,-9,557,7,13.3,4.0,-28.0,13.5,4.1,-27.5,5.73,2.58,-17.2,19.8
2013-11-04 00:41:00,0.0,1.92110,0.00035,397.759,0.000,0.0799,0.0019,140.001,45.000,31236.95937,1.92289,398.144,26.313,45.061,45.000,0.00,0.11,-272.58,-272.64,-10,557,7,13.3,4.0,-28.0,13.5,4.2,-27.4,5.73,2.59,-17.2,19.8
2013-11-04 00:42:00,0.0,1.92096,0.00073,397.759,0.000,0.0800,0.0023,140.002,45.000,31236.11332,1.92260,398.142,26.313,45.061,45.000,0.00,0.11,-272.57,-272.64,-9,557,7,13.3,4.0,-27.9,13.5,4.2,-27.4,5.73,2.68,-17.2,19.8
2013-11-04 00:43:00,0.0,1.92055,0.00042,397.718,0.067,0.0810,0.0017,140.008,45.000,31238.20500,1.92195,398.117,26.313,45.061,45.000,0.00,0.11,-272.58,-272.64,-9,557,7,13.3,4.1,-27.8,13.5,4.2,-27.3,5.73,2.60,-17.2,19.8
2013-11-04 00:44:00,0.0,1.92032,0.00040,397.615,0.000,0.0813,0.0018,140.001,45.000,31235.56839,1.92192,398.002,26.313,45.061,45.000,0.00,0.11,-272.58,-272.64,-9,557,7,13.3,4.1,-27.7,13.5,4.2,-27.2,5.73,2.57,-17.3,19.8
2013-11-04 00:45:00,0.0,1.92009,0.00019,397.615,0.000,0.0815,0.0010,140.003,45.000,31235.00569,1.92176,398.005,26.313,45.061,45.000,0.00,0.11,-272.58,-272.64,-10,557,7,13.3,4.1,-27.6,13.5,4.3,-27.1,5.73,2.66,-17.2,19.8
2013-11-04 00:46:00,0.0,1.92006,0.00040,397.615,0.000,0.0836,0.0015,139.999,45.000,31233.54659,1.92164,398.014,26.319,45.061,45.000,0.00,0.11,-272.58,-272.64,-10,557,7,13.3,4.2,-27.6,13.5,4.3,-27.1,5.73,2.64,-17.3,19.8
2013-11-04 00:47:00,0.0,1.91957,0.00027,397.628,0.000,0.0851,0.0022,140.000,45.000,31234.07938,1.92122,398.032,26.313,45.061,45.000,0.00,0.11,-272.58,-272.64,-9,557,7,13.3,4.2,-27.4,13.5,4.4,-26.9,5.73,2.56,-17.3,19.8
2013-11-04 00:48:00,0.0,1.91966,0.00037,397.628,0.000,0.0868,0.0019,140.004,45.000,31236.04825,1.92138,398.045,26.313,45.061,45.000,0.00,0.11,-272.58,-272.64,-10,557,7,13.3,4.3,-27.2,13.5,4.5,-26.7,5.73,2.63,-17.3,19.8
2013-11-04 00:49:00,0.0,1.91907,0.00046,397.573,0.078,0.0872,0.0025,139.999,45.000,31233.79332,1.92087,398.007,26.313,45.060,45.000,0.00,0.11,-272.58,-272.64,-10,557,7,13.3,4.4,-27.0,13.5,4.5,-26.5,5.73,2.66,-17.3,19.8
2013-11-04 00:50:00,0.0,1.91908,0.00065,397.463,0.000,0.0911,0.0009,139.999,45.000,31234.69070,1.92065,397.896,26.317,45.061,45.000,0.00,0.11,-272.58,-272.64,-10,557,7,13.3,4.5,-26.8,13.5,4.6,-26.3,5.73,2.58,-17.3,19.8
2013-11-04 00:51:00,0.0,1.91979,0.00054,397.463,0.000,0.0896,0.0015,140.009,45.000,31236.51731,1.92128,397.895,26.313,45.060,45.000,0.00,0.11,-272.58,-272.64,-9,557,7,13.3,4.5,-26.7,13.5,4.7,-26.2,5.73,2.60,-17.3,19.8
2013-11-04 00:52:00,0.0,1.91944,0.00025,397.463,0.000,0.0909,0.0025,140.001,45.000,31235.56446,1.92140,397.897,26.321,45.061,45.000,0.00,0.11,-272.58,-272.64,-10,557,7,13.3,4.5,-26.6,13.5,4.7,-26.1,5.73,2.66,-17.3,19.8
2013-11-04 00:53:00,0.0,1.91939,0.00058,397.588,0.059,0.0910,0.0013,140.005,45.000,31235.84146,1.92120,398.009,26.313,45.061,45.000,0.00,0.11,-272.58,-272.64,-10,557,7,13.3,4.6,-26.5,13.5,4.7,-26.0,5.73,2.60,-17.3,19.8
2013-11-04 00:54:00,0.0,1.91903,0.00038,397.616,0.000,0.0907,0.0013,140.000,45.000,31237.79988,1.92078,398.051,26.317,45.061,45.000,0.00,0.11,-272.58,-272.64,-9,557,7,13.3,4.6,-26.5,13.5,4.7,-26.0,5.73,2.58,-17.3,19.9
2013-11-04 00:55:00,0.0,1.91893,0.00043,397.573,0.048,0.0914,0.0026,140.001,45.000,31238.08345,1.92060,398.019,26.316,45.061,45.000,0.00,0.11,-272.58,-272.64,-9,557,7,13.3,4.6,-26.5,13.5,4.7,-26.1,5.73,2.66,-17.3,19.8
2013-11-04 00:56:00,0.0,1.91876,0.00065,397.521,0.000,0.0927,0.0010,140.002,45.000,31237.66906,1.92048,397.961,26.330,45.060,45.000,0.00,0.11,-272.58,-272.64,-9,557,7,13.3,4.6,-26.5,13.5,4.7,-26.1,5.73,2.61,-17.3,19.8
2013-11-04 00:57:00,0.0,1.91919,0.00018,397.521,0.000,0.0930,0.0009,140.001,45.000,31236.58110,1.92092,397.966,26.338,45.061,45.000,0.00,0.11,-272.58,-272.64,-10,557,7,13.3,4.6,-26.5,13.5,4.7,-26.0,5.73,2.58,-17.3,19.8
2013-11-04 00:58:00,0.0,1.91956,0.00029,397.521,0.000,0.0934,0.0017,140.001,45.000,31236.19928,1.92127,397.967,26.326,45.060,45.000,0.00,0.11,-272.58,-272.64,-9,558,7,13.3,4.6,-26.5,13.5,4.7,-26.0,5.73,2.64,-17.3,19.8
2013-11-04 00:59:00,0.0,1.91939,0.00024,397.521,0.000,0.0925,0.0005,140.001,45.000,31237.16065,1.92115,397.965,26.344,45.060,45.000,0.00,0.11,-272.57,-272.64,-9,557,7,13.3,4.6,-26.5,13.5,4.7,-26.0,5.73,2.65,-17.3,19.8
2013-11-04 01:00:00,0.0,1.91978,0.00018,397.521,0.000,0.0921,0.0011,139.995,45.000,31234.74801,1.92141,397.960,26.313,45.061,45.000,0.00,0.11,-272.58,-272.64,-9,557,7,13.3,4.6,-26.5,13.5,4.7,-26.0,5.73,2.57,-17.3,19.8
2013-11-04 01:01:00,0.0,1.92446,0.00296,397.521,0.000,0.0897,0.0007,139.998,45.000,31237.41891,1.92492,397.953,26.318,45.061,45.000,0.00,0.11,-272.58,-272.64,-10,557,7,13.3,4.5,-26.6,13.5,4.7,-26.1,5.73,2.62,-17.3,19.8
2013-11-04 01:02:00,0.0,1.92625,0.00091,397.521,0.000,0.0914,0.0010,139.992,45.000,31234.75361,1.92794,397.956,26.313,45.061,45.000,0.00,0.11,-272.58,-272.64,-10,558,7,13.3,4.5,-26.7,13.5,4.7,-26.2,5.73,2.66,-17.3,19.8
2013-11-04 01:03:00,0.0,1.92656,0.00095,397.633,0.124,0.0884,0.0016,139.999,45.000,31236.32796,1.92835,398.035,26.314,45.061,45.000,0.00,0.11,-272.58,-272.64,-9,557,7,13.3,4.5,-26.8,13.5,4.6,-26.3,5.73,2.59,-17.3,19.8
2013-11-04 01:04:00,0.0,1.92486,0.00069,397.744,0.023,0.0891,0.0014,140.002,45.000,31236.48098,1.92684,398.176,26.313,45.061,45.000,0.00,0.11,-272.58,-272.64,-9,557,7,13.4,4.4,-26.8,13.5,4.6,-26.4,5.73,2.59,-17.3,19.8
2013-11-04 01:05:00,0.0,1.92350,0.00031,397.724,0.000,0.0872,0.0014,140.003,45.000,31235.26643,1.92539,398.141,26.313,45.060,45.000,0.00,0.11,-272.58,-272.64,-10,557,7,13.3,4.4,-27.0,13.5,4.5,-26.5,5.73,2.68,-17.3,19.8
2013-11-04 01:06:00,0.0,1.92327,0.00123,397.724,0.000,0.0887,0.0017,140.000,45.000,31234.75551,1.92517,398.146,26.313,45.060,45.000,0.00,0.11,-272.58,-272.64,-10,557,7,13.3,4.4,-27.0,13.5,4.5,-26.6,5.73,2.60,-17.3,19.8
2013-11-04 01:07:00,0.0,1.92240,0.00082,397.730,0.006,0.0867,0.0012,139.995,45.000,31236.21258,1.92396,398.147,26.322,45.061,45.000,0.00,0.11,-272.58,-272.64,-9,557,7,13.3,4.3,-27.1,13.5,4.5,-26.6,5.73,2.58,-17.3,19.8
2013-11-04 01:08:00,0.0,1.92264,0.00102,397.711,0.015,0.0874,0.0013,140.013,45.000,31241.02434,1.92441,398.135,26.324,45.061,45.000,0.00,0.11,-272.58,-272.64,-9,557,7,13.3,4.3,-27.2,13.5,4.5,-26.6,5.73,2.66,-17.3,19.8
2013-11-04 01:09:00,0.0,1.92264,0.00040,397.736,0.000,0.0854,0.0022,140.005,45.000,31237.80102,1.92412,398.139,26.349,45.061,45.000,0.00,0.11,-272.58,-272.64,-10,557,7,13.3,4.3,-27.2,13.5,4.5,-26.6,5.73,2.65,-17.3,19.8
2013-11-04 01:10:00,0.0,1.92399,0.00103,397.723,0.021,0.0853,0.0009,139.999,45.000,31235.03476,1.92563,398.137,26.330,45.061,45.000,0.00,0.11,-272.58,-272.64,-10,557,7,13.3,4.3,-27.2,13.5,4.5,-26.7,5.73,2.56,-17.3,19.8
2013-11-04 01:11:00,0.0,1.92349,0.00153,397.690,0.000,0.0871,0.0020,140.002,45.000,31236.95214,1.92514,398.106,26.321,45.061,45.000,0.00,0.11,-272.58,-272.64,-9,557,7,13.3,4.3,-27.2,13.5,4.5,-26.7,5.73,2.64,-17.3,19.8
2013-11-04 01:12:00,0.0,1.92282,0.00123,397.765,0.000,0.0869,0.0015,140.003,45.000,31237.95007,1.92467,398.173,26.338,45.061,45.000,0.00,0.11,-272.58,-272.64,-9,557,7,13.3,4.3,-27.2,13.5,4.5,-26.7,5.73,2.67,-17.3,19.8
2013-11-04 01:13:00,0.0,1.92302,0.00089,397.765,0.000,0.0870,0.0009,139.999,45.000,31233.42543,1.92442,398.181,26.359,45.061,45.000,0.00,0.11,-272.58,-272.64,-10,557,7,13.3,4.3,-27.2,13.5,4.5,-26.7,5.73,2.58,-17.3,19.8
2013-11-04 01:14:00,0.0,1.92363,0.00043,397.765,0.000,0.0850,0.0014,139.998,45.000,31233.80221,1.92514,398.174,26.358,45.060,45.000,0.00,0.11,-272.58,-272.64,-10,558,7,13.3,4.3,-27.1,13.5,4.5,-26.6,5.73,2.60,-17.3,19.8
2013-11-04 01:15:00,0.0,1.92194,0.00135,397.731,0.055,0.0843,0.0014,140.003,45.000,31236.88205,1.92400,398.146,26.355,45.060,45.000,0.00,0.11,-272.58,-272.64,-9,557,7,13.3,4.3,-27.1,13.5,4.5,-26.7,5.73,2.68,-17.3,19.9
2013-11-04 01:16:00,0.0,1.92142,0.00042,397.641,0.000,0.0858,0.0005,140.005,45.000,31236.14020,1.92281,398.050,26.355,45.060,45.000,0.00,0.11,-272.58,-272.64,-9,557,7,13.3,4.3,-27.1,13.5,4.5,-26.7,5.73,2.59,-17.3,19.8
2013-11-04 01:17:00,0.0,1.92177,0.00040,397.641,0.000,0.0872,0.0010,139.993,45.000,31233.26893,1.92336,398.057,26.360,45.060,45.000,0.00,0.11,-272.58,-272.64,-10,557,7,13.3,4.3,-27.2,13.5,4.5,-26.6,5.73,2.58,-17.3,19.8
2013-11-04 01:18:00,0.0,1.92162,0.00045,397.634,0.008,0.0855,0.0007,140.001,45.000,31235.35124,1.92321,398.046,26.365,45.060,45.000,0.00,0.11,-272.59,-272.64,-10,558,7,13.3,4.3,-27.1,13.5,4.5,-26.6,5.73,2.66,-17.3,19.8
2013-11-04 01:19:00,0.0,1.92297,0.00069,397.625,0.000,0.0863,0.0006,140.004,45.000,31238.37521,1.92453,398.037,26.367,45.060,45.000,0.00,0.11,-272.58,-272.64,-9,557,7,13.4,4.3,-27.1,13.5,4.5,-26.6,5.73,2.64,-17.3,19.8
2013-11-04 01:20:00,0.0,1.92362,0.00062,397.625,0.000,0.0865,0.0011,140.009,45.000,31237.21600,1.92487,398.039,26.367,45.060,44.999,0.00,0.11,-272.58,-272.63,-9,557,7,13.3,4.3,-27.1,13.5,4.5,-26.6,5.73,2.58,-17.3,19.8
2013-11-04 01:21:00,0.0,1.92531,0.00089,397.732,0.081,0.0876,0.0014,140.000,45.000,31235.17509,1.92645,398.135,26.350,45.060,45.000,0.00,0.11,-272.58,-272.64,-10,557,7,13.3,4.3,-27.1,13.5,4.5,-26.6,5.73,2.64,-17.3,19.8
2013-11-04 01:22:00,0.0,1.92543,0.00103,397.794,0.000,0.0851,0.0005,140.007,45.000,31237.25226,1.92763,398.205,26.371,45.061,45.000,0.00,0.11,-272.58,-272.64,-10,558,7,13.3,4.3,-27.1,13.5,4.5,-26.6,5.73,2.65,-17.3,19.8
2013-11-04 01:23:00,0.0,1.92574,0.00065,397.794,0.000,0.0864,0.0019,139.995,45.000,31233.39077,1.92697,398.207,26.357,45.060,45.000,0.00,0.11,-272.58,-272.63,-9,557,7,13.3,4.3,-27.2,13.5,4.4,-26.7,5.73,2.58,-17.3,19.8
2013-11-04 01:24:00,0.0,1.92477,0.00097,397.794,0.000,0.0853,0.0007,140.001,45.000,31235.61696,1.92694,398.202,26.361,45.061,45.000,0.00,0.11,-272.58,-272.64,-9,557,7,13.3,4.3,-27.3,13.5,4.4,-26.8,5.73,2.63,-17.3,19.9
2013-11-04 01:25:00,0.0,1.92266,0.00057,397.794,0.000,0.0842,0.0019,140.000,45.000,31235.45482,1.92445,398.197,26.375,45.061,45.000,0.00,0.11,-272.58,-272.64,-10,557,7,13.3,4.2,-27.3,13.5,4.4,-26.8,5.73,2.66,-17.3,19.9
2013-11-04 01:26:00,0.0,1.92282,0.00062,397.794,0.000,0.0842,0.0025,140.012,45.000,31239.08342,1.92460,398.194,26.365,45.060,45.000,0.00,0.11,-272.58,-272.64,-10,558,7,13.3,4.2,-27.4,13.5,4.4,-26.9,5.73,2.59,-17.3,19.8
2013-11-04 01:27:00,0.0,1.92265,0.00060,397.794,0.000,0.0833,0.0013,140.001,45.000,31235.53634,1.92425,398.196,26.374,45.060,45.000,0.00,0.11,-272.58,-272.64,-9,558,7,13.3,4.2,-27.4,13.5,4.4,-26.9,5.73,2.60,-17.3,19.9
2013-11-04 01:28:00,0.0,1.92289,0.00096,397.768,0.037,0.0846,0.0022,140.001,45.000,31236.19613,1.92450,398.179,26.370,45.060,45.000,0.00,0.11,-272.58,-272.64,-9,557,7,13.3,4.2,-27.4,13.5,4.4,-26.9,5.73,2.67,-17.3,19.9
2013-11-04 01:29:00,0.0,1.92234,0.00100,397.716,0.000,0.0825,0.0010,139.998,45.000,31237.19731,1.92399,398.112,26.365,45.061,45.000,0.00,0.11,-272.58,-272.64,-10,557,7,13.3,4.2,-27.4,13.5,4.4,-26.9,5.73,2.62,-17.3,19.9
2013-11-04 01:30:00,0.0,1.92127,0.00088,397.716,0.000,0.0850,0.0020,140.002,45.000,31237.06419,1.92310,398.122,26.360,45.061,45.000,0.00,0.11,-272.58,-272.63,-10,558,7,13.4,4.2,-27.4,13.5,4.4,-26.9,5.73,2.58,-17.3,19.8
2013-11-04 01:31:00,0.0,1.92122,0.00043,397.700,0.014,0.0846,0.0008,139.998,45.000,31238.16300,1.92276,398.107,26.347,45.061,45.000,0.00,0.11,-272.59,-272.64,-9,558,7,13.3,4.2,-27.4,13.5,4.4,-26.9,5.73,2.64,-17.3,19.8
2013-11-04 01:32:00,0.0,1.92085,0.00092,397.688,0.000,0.0848,0.0014,140.003,45.000,31237.23011,1.92222,398.095,26.363,45.061,45.000,0.00,0.11,-272.58,-272.63,-9,557,7,13.3,4.2,-27.4,13.5,4.4,-26.8,5.73,2.65,-17.3,19.9
2013-11-04 01:33:00,0.0,1.92143,0.00074,397.688,0.000,0.0854,0.0012,140.000,45.000,31237.75672,1.92315,398.094,26.367,45.061,45.000,0.00,0.11,-272.58,-272.64,-10,557,7,13.3,4.2,-27.4,13.5,4.4,-26.8,5.73,2.58,-17.3,19.9
2013-11-04 01:34:00,0.0,1.92084,0.00035,397.718,0.008,0.0862,0.0007,140.005,45.000,31236.58963,1.92258,398.128,26.367,45.060,45.000,0.00,0.11,-272.58,-272.64,-10,557,7,13.3,4.3,-27.2,13.5,4.4,-26.8,5.73,2.61,-17.3,19.9
2013-11-04 01:35:00,0.0,1.92215,0.00067,397.725,0.000,0.0868,0.0011,139.999,45.000,31235.63741,1.92362,398.140,26.375,45.061,45.000,0.00,0.11,-272.58,-272.64,-9,558,7,13.3,4.3,-27.2,13.5,4.5,-26.7,5.73,2.67,-17.3,19.9
2013-11-04 01:36:00,0.0,1.92299,0.00072,397.725,0.000,0.0868,0.0010,139.999,45.000,31237.32474,1.92432,398.141,26.375,45.060,45.000,0.00,0.11,-272.58,-272.64,-9,557,7,13.3,4.3,-27.1,13.5,4.5,-26.6,5.73,2.59,-17.3,19.8
2013-11-04 01:37:00,0.0,1.92373,0.00053,397.759,0.024,0.0874,0.0024,140.002,45.000,31236.60278,1.92533,398.173,26.375,45.060,45.000,0.00,0.11,-272.58,-272.64,-10,557,7,13.4,4.4,-27.0,13.5,4.5,-26.5,5.73,2.59,-17.3,19.9
2013-11-04 01:38:00,0.0,1.92369,0.00107,397.781,0.000,0.0888,0.0017,140.000,45.000,31233.93252,1.92557,398.205,26.375,45.061,45.000,0.00,0.11,-272.58,-272.64,-10,557,7,13.4,4.4,-27.0,13.5,4.5,-26.5,5.73,2.66,-17.3,19.9
2013-11-04 01:39:00,0.0,1.92399,0.00079,397.765,0.000,0.0886,0.0005,139.997,45.000,31236.69401,1.92520,398.192,26.375,45.061,45.000,0.00,0.11,-272.58,-272.64,-10,558,7,13.4,4.4,-27.0,13.5,4.5,-26.5,5.73,2.63,-17.3,19.9
2013-11-04 01:40:00,0.0,1.92457,0.00051,397.765,0.000,0.0869,0.0011,139.999,45.000,31236.64928,1.92641,398.183,26.375,45.061,45.000,0.00,0.11,-272.58,-272.64,-9,557,7,13.3,4.4,-27.0,13.5,4.5,-26.5,5.73,2.56,-17.3,19.9
2013-11-04 01:41:00,0.0,1.92338,0.00047,397.765,0.000,0.0868,0.0007,140.000,45.000,31235.82621,1.92531,398.180,26.375,45.061,45.000,0.00,0.11,-272.58,-272.64,-9,557,7,13.3,4.4,-27.0,13.5,4.5,-26.5,5.73,2.65,-17.3,19.9
2013-11-04 01:42:00,0.0,1.92276,0.00056,397.765,0.000,0.0888,0.0022,140.001,45.000,31238.08250,1.92446,398.189,26.375,45.060,45.000,0.00,0.11,-272.58,-272.64,-10,557,7,13.3,4.4,-27.0,13.5,4.5,-26.5,5.73,2.65,-17.3,19.9
2013-11-04 01:43:00,0.0,1.92520,0.00086,397.765,0.000,0.0872,0.0016,139.998,45.000,31235.70732,1.92639,398.183,26.377,45.061,45.000,0.00,0.11,-272.58,-272.64,-10,558,7,13.3,4.4,-27.0,13.5,4.5,-26.5,5.73,2.56,-17.3,19.9
2013-11-04 01:44:00,0.0,1.92418,0.00060,397.765,0.000,0.0885,0.0018,140.003,45.000,31237.90419,1.92610,398.188,26.375,45.060,45.000,0.00,0.11,-272.58,-272.63,-9,557,7,13.4,4.4,-27.0,13.5,4.5,-26.5,5.73,2.62,-17.3,19.9
2013-11-04 01:45:00,0.0,1.92238,0.00102,397.765,0.000,0.0884,0.0014,139.999,45.000,31238.83041,1.92432,398.190,26.375,45.061,45.000,0.00,0.11,-272.58,-272.64,-10,557,7,13.4,4.4,-27.0,13.5,4.5,-26.5,5.73,2.67,-17.3,19.9
2013-11-04 01:46:00,0.0,1.92267,0.00017,397.765,0.000,0.0881,0.0018,140.000,45.000,31236.97764,1.92438,398.187,26.375,45.061,45.000,0.00,0.11,-272.58,-272.64,-10,557,7,13.4,4.4,-27.0,13.5,4.5,-26.6,5.73,2.59,-17.3,19.9